FW4251 Weather Reports


time (UTC)temp
F
wind
direction
speed
knots
gust
knots
rain 1hr
in
rain 24hr
in
rain mn
in
humidity
%
barometer
mb
20260504082008 40 360 3.5 7.8 0.00 0.00 0.00 77 1011.5
20260504081506 40 360 1.7 5.2 0.00 0.00 0.00 77 1011.6
20260504081005 40 360 1.7 5.2 0.00 0.00 0.00 77 1011.6
20260504080507 40 193 1.7 5.2 0.00 0.00 0.00 77 1011.6
20260504050539 43 360 1.7 4.3 0.00 0.00 0.00 71 1011.5
20260504050104 43 360 2.6 4.3 0.00 0.00 0.00 71 1011.6
20260504045537 43 360 0.9 3.5 0.00 0.00 0.00 70 1011.6
20260504045040 43 360 0.9 3.5 0.00 0.00 0.00 68 1011.5
20260504044536 44 360 0.9 4.3 0.00 0.00 0.00 68 1011.5
20260504044036 44 360 0.9 4.3 0.00 0.00 0.00 68 1011.6
20260504043535 44 360 1.7 3.5 0.00 0.00 0.00 68 1011.6
20260504043034 44 360 0.9 4.3 0.00 0.00 0.00 67 1011.7
20260504042533 44 360 1.7 4.3 0.00 0.00 0.00 67 1011.7
20260504042031 45 360 0.9 4.3 0.00 0.00 0.00 67 1011.7
20260504041534 45 360 1.7 4.3 0.00 0.00 0.00 65 1011.7
20260504041029 45 360 1.7 3.5 0.00 0.00 0.00 65 1011.7
20260504040528 46 360 0.9 4.3 0.00 0.00 0.00 64 1011.6
20260504040031 46 360 0.9 4.3 0.00 0.00 0.00 63 1011.5
20260504035529 46 360 1.7 4.3 0.00 0.00 0.00 63 1011.6
20260504035029 46 360 1.7 3.5 0.00 0.00 0.00 63 1011.4
20260504034539 46 360 1.7 5.2 0.00 0.00 0.00 63 1011.5
20260504034030 46 360 1.7 5.2 0.00 0.00 0.00 62 1011.4
20260504033534 45 360 1.7 4.3 0.00 0.00 0.00 63 1011.4
20260504033030 45 360 1.7 3.5 0.00 0.00 0.00 63 1011.4
20260504032525 45 360 1.7 4.3 0.00 0.00 0.00 64 1011.4
20260504032025 44 360 1.7 4.3 0.00 0.00 0.00 65 1011.5
20260504031526 44 360 0.9 1.7 0.00 0.00 0.00 65 1011.4
20260504031026 44 360 0.0 1.7 0.00 0.00 0.00 63 1011.4
20260504030526 44 360 0.0 1.7 0.00 0.00 0.00 63 1011.5
20260504030036 45 360 0.0 2.6 0.00 0.00 0.00 61 1011.3
20260504025530 45 360 0.9 2.6 0.00 0.00 0.00 62 1011.4
20260504025025 44 360 0.9 2.6 0.00 0.00 0.00 65 1011.4
20260504024525 44 360 0.0 1.7 0.00 0.00 0.00 65 1011.4
20260504024026 45 360 0.0 1.7 0.00 0.00 0.00 63 1011.3
20260504023524 45 360 0.0 2.6 0.00 0.00 0.00 61 1011.3
20260504023024 45 360 0.9 2.6 0.00 0.00 0.00 61 1011.3
20260504022523 46 360 0.0 0.0 0.00 0.00 0.00 59 1011.3
20260504022023 46 360 0.0 0.0 0.00 0.00 0.00 59 1011.3
20260504021523 46 360 0.0 0.0 0.00 0.00 0.00 58 1011.3
20260504021023 46 360 0.0 0.0 0.00 0.00 0.00 58 1011.3
20260504020523 47 360 0.0 0.0 0.00 0.00 0.00 57 1011.3
20260504020023 47 360 0.0 0.0 0.00 0.00 0.00 56 1011.3
20260504015523 48 312 0.0 0.0 0.00 0.00 0.00 57 1011.3
20260504015023 48 312 0.0 0.9 0.00 0.00 0.00 56 1011.3
20260504014524 48 312 0.0 1.7 0.00 0.00 0.00 54 1011.3
20260504014022 48 312 0.0 1.7 0.00 0.00 0.00 54 1011.3
20260504013522 48 312 0.0 1.7 0.00 0.00 0.00 53 1011.3
20260504013023 48 312 0.0 0.9 0.00 0.00 0.00 53 1011.2
20260504012523 48 312 0.0 0.9 0.00 0.00 0.00 52 1011.2
20260504012022 48 312 0.0 0.9 0.00 0.00 0.00 53 1011.2
20260504011523 49 312 0.0 1.7 0.00 0.00 0.00 53 1011.2
20260504011021 49 312 0.0 2.6 0.00 0.00 0.00 52 1011.1
20260504010523 49 360 0.9 2.6 0.00 0.00 0.00 52 1011.1
20260504010021 49 310 0.9 1.7 0.00 0.00 0.00 53 1011.0
20260504005521 49 312 0.9 1.7 0.00 0.00 0.00 52 1010.9
20260504005021 50 311 0.0 1.7 0.00 0.00 0.00 51 1011.0
20260504004523 51 312 0.0 2.6 0.00 0.00 0.00 49 1010.9
20260504004021 51 311 0.9 2.6 0.00 0.00 0.00 49 1010.9
20260504003520 51 311 0.0 2.6 0.00 0.00 0.00 48 1010.8
20260504003022 52 311 0.0 2.6 0.00 0.00 0.00 46 1010.7
20260504002519 52 311 0.9 4.3 0.00 0.00 0.00 45 1010.7
20260504002019 53 311 1.7 4.3 0.00 0.00 0.00 45 1010.6
20260504001519 53 317 0.9 1.7 0.00 0.00 0.00 44 1010.5
20260504001019 54 317 0.9 2.6 0.00 0.00 0.00 43 1010.4
20260504000518 54 360 0.0 2.6 0.00 0.00 0.00 43 1010.3
20260504000018 54 317 0.9 5.2 0.00 0.00 0.00 42 1010.4
20260503235518 55 317 1.7 5.2 0.00 0.00 0.00 41 1010.3
20260503235018 55 319 1.7 5.2 0.00 0.00 0.00 41 1010.2
20260503234522 55 331 1.7 5.2 0.00 0.00 0.00 41 1010.3
20260503234018 55 304 1.7 7.0 0.00 0.00 0.00 40 1010.1
20260503233517 55 313 1.7 7.0 0.00 0.00 0.00 40 1010.1
20260503233017 55 314 2.6 4.3 0.00 0.00 0.00 39 1010.0
20260503232517 56 327 1.7 14.8 0.00 0.00 0.00 40 1010.0
20260503232017 56 329 3.5 14.8 0.00 0.00 0.00 38 1010.0
20260503231519 56 312 5.2 11.3 0.00 0.00 0.00 37 1010.0
20260503231017 56 309 0.9 5.2 0.00 0.00 0.00 38 1010.1
20260503230517 56 305 1.7 11.3 0.00 0.00 0.00 37 1010.0
20260503230016 56 309 2.6 9.6 0.00 0.00 0.00 36 1010.0
20260503225516 56 328 2.6 7.0 0.00 0.00 0.00 35 1009.9
20260503225016 57 287 2.6 7.0 0.00 0.00 0.00 34 1009.8
20260503224516 57 279 1.7 12.2 0.00 0.00 0.00 33 1009.7
20260503224017 57 323 3.5 12.2 0.00 0.00 0.00 34 1009.5
20260503223517 57 345 3.5 13.0 0.00 0.00 0.00 32 1009.5
20260503223022 57 272 7.0 13.0 0.00 0.00 0.00 32 1009.6
20260503222515 57 246 4.3 14.8 0.00 0.00 0.00 32 1009.6
20260503222016 57 315 6.1 14.8 0.00 0.00 0.00 31 1009.5
20260503221515 58 294 4.3 10.4 0.00 0.00 0.00 31 1009.4
20260503221015 58 315 4.3 9.6 0.00 0.00 0.00 30 1009.3
20260503220515 58 5 4.3 15.6 0.00 0.00 0.00 30 1009.3
20260503220017 58 323 7.0 15.6 0.00 0.00 0.00 28 1009.2
20260503215515 59 235 3.5 9.6 0.00 0.00 0.00 30 1009.4
20260503215013 58 307 3.5 8.7 0.00 0.00 0.00 31 1009.3
20260503214514 59 302 3.5 12.2 0.00 0.00 0.00 29 1009.3
20260503214014 59 294 5.2 12.2 0.00 0.00 0.00 28 1009.3
20260503213513 59 9 3.5 9.6 0.00 0.00 0.00 28 1009.2
20260503213012 59 360 5.2 11.3 0.00 0.00 0.00 28 1009.2
20260503212512 59 5 2.6 8.7 0.00 0.00 0.00 31 1009.2
20260503212011 59 340 4.3 11.3 0.00 0.00 0.00 29 1009.3
20260503211517 59 313 6.1 12.2 0.00 0.00 0.00 29 1009.4
20260503211010 59 9 3.5 10.4 0.00 0.00 0.00 30 1009.3
20260503210508 59 333 5.2 9.6 0.00 0.00 0.00 31 1009.3
20260503210016 59 320 4.3 12.2 0.00 0.00 0.00 31 1009.3
20260503205512 58 9 3.5 17.4 0.00 0.00 0.00 33 1009.3
20260503205007 58 336 6.1 13.0 0.00 0.00 0.00 30 1009.3
20260503204506 58 331 7.0 13.9 0.00 0.00 0.00 31 1009.3
20260503204006 58 319 7.0 13.9 0.00 0.00 0.00 30 1009.3
20260503203504 58 308 6.1 12.2 0.00 0.00 0.00 31 1009.4
20260503203011 58 5 4.3 10.4 0.00 0.00 0.00 32 1009.5
20260503202503 58 17 5.2 13.9 0.00 0.00 0.00 33 1009.5
20260503202004 57 344 5.2 13.0 0.00 0.00 0.00 32 1009.5
20260503201503 57 347 7.8 13.0 0.00 0.00 0.00 31 1009.4
20260503201002 58 318 3.5 13.9 0.00 0.00 0.00 35 1009.5
20260503200501 58 331 6.1 13.9 0.00 0.00 0.00 33 1009.5
20260503200000 58 335 3.5 13.9 0.00 0.00 0.00 34 1009.6
20260503195500 58 355 3.5 17.4 0.00 0.00 0.00 33 1009.7
20260503195100 57 342 6.1 17.4 0.00 0.00 0.00 32 1009.7
20260503194600 59 313 5.2 11.3 0.00 0.00 0.00 32 1009.9
20260503194100 58 213 2.6 9.6 0.00 0.00 0.00 35 1009.8
20260503193557 57 254 4.3 12.2 0.00 0.00 0.00 36 1010.0
20260503193057 57 288 7.0 16.5 0.00 0.00 0.00 32 1010.2
20260503192556 57 327 7.0 16.5 0.00 0.00 0.00 33 1010.1
20260503192055 57 304 7.0 13.9 0.00 0.00 0.00 34 1010.2
20260503191604 57 304 7.8 13.9 0.00 0.00 0.00 35 1010.3
20260503191054 57 5 6.1 12.2 0.00 0.00 0.00 35 1010.3
20260503190553 57 318 7.0 13.9 0.00 0.00 0.00 36 1010.2
20260503190052 57 253 5.2 13.9 0.00 0.00 0.00 37 1010.3
20260503185551 56 347 5.2 11.3 0.00 0.00 0.00 36 1010.5
20260503185051 55 263 6.1 13.0 0.00 0.00 0.00 37 1010.5
20260503184607 55 10 6.1 13.0 0.00 0.00 0.00 37 1010.7
20260503184050 56 22 2.6 11.3 0.00 0.00 0.00 37 1010.7
20260503183549 56 355 3.5 12.2 0.00 0.00 0.00 37 1010.6
20260503183049 55 32 6.1 12.2 0.00 0.00 0.00 38 1010.5
20260503182547 54 344 6.1 12.2 0.00 0.00 0.00 38 1010.8
20260503182047 53 30 5.2 12.2 0.00 0.00 0.00 41 1010.8
20260503181550 53 5 5.2 20.9 0.00 0.00 0.00 39 1010.9
20260503181047 54 355 7.0 20.9 0.00 0.00 0.00 39 1011.0
20260503180547 55 324 4.3 10.4 0.00 0.00 0.00 41 1010.8
20260503175645 54 321 7.8 14.8 0.00 0.00 0.00 39 1011.1
20260503175044 54 278 4.3 13.9 0.00 0.00 0.00 43 1011.0
20260503174600 52 5 7.8 13.9 0.00 0.00 0.00 41 1011.1
20260503174044 52 348 7.8 20.0 0.00 0.00 0.00 40 1011.2
20260503173544 51 342 6.1 20.0 0.00 0.00 0.00 41 1011.1
20260503173043 51 294 7.8 16.5 0.00 0.00 0.00 43 1011.1
20260503172543 51 339 7.0 16.5 0.00 0.00 0.00 43 1011.2
20260503172042 51 316 7.8 14.8 0.00 0.00 0.00 40 1011.2
20260503171542 53 306 5.2 14.8 0.00 0.00 0.00 42 1011.2
20260503171042 52 332 7.8 14.8 0.00 0.00 0.00 40 1011.1
20260503170545 52 313 8.7 17.4 0.00 0.00 0.00 41 1011.1
20260503150535 49 331 2.6 11.3 0.00 0.00 0.00 43 1011.2
20260503131018 46 360 7.0 13.0 0.00 0.00 0.00 54 1011.8
20260503130518 46 360 5.2 11.3 0.00 0.00 0.00 55 1011.9
20260503110600 40 360 1.7 3.5 0.00 0.00 0.00 73 1011.3
20260503100107 34 14 0.9 2.6 0.00 0.00 0.00 83 1010.7